Location: Cactus School
(34.5700°N, 118.0931°W)
Time: 06:02:24
(UTC-07:00)

Vanguard 2 Rocket - Visible Passes

Search period start: 16 July 2018 00:00
Search period end: 26 July 2018 00:00
Orbit: 553 x 3327 km, 32.9° (Epoch: 15 July)

Date Brightness Start Highest point End Pass type
(mag) Time Alt. Az. Time Alt. Az. Time Alt. Az.
16 Jul 8.3 02:46:45 31° SE 02:46:45 31° SE 02:54:39 10° E visible
16 Jul 8.2 04:52:34 13° WSW 04:59:44 75° SSE 05:13:49 10° E visible
17 Jul 9.3 01:50:36 13° ESE 01:50:36 13° ESE 01:52:10 10° E visible
17 Jul 7.8 03:56:24 33° SW 03:59:48 62° SSE 04:11:23 10° E visible
18 Jul 7.6 03:00:14 44° SSE 03:00:22 44° SSE 03:09:20 10° E visible
18 Jul 8.2 05:06:27 10° W 05:14:05 81° S 05:28:13 10° E visible
19 Jul 8.8 02:04:05 21° ESE 02:04:05 21° ESE 02:07:32 10° E visible
19 Jul 7.6 04:09:53 27° WSW 04:14:03 74° SSE 04:25:46 10° E visible
20 Jul 7.1 03:13:45 56° S 03:14:26 59° SSE 03:23:48 10° E visible
20 Jul 8.2 05:20:53 10° W 05:28:29 82° S 05:42:35 10° E visible
21 Jul 8.3 02:17:37 30° ESE 02:17:37 30° ESE 02:22:16 10° E visible
21 Jul 7.6 04:23:25 20° W 04:28:25 80° S 04:40:10 10° E visible
22 Jul 7.0 03:27:19 55° SW 03:28:42 72° SSE 03:38:13 10° E visible
23 Jul 7.7 02:31:14 41° ESE 02:31:14 41° ESE 02:36:46 10° E visible
23 Jul 7.6 04:37:03 14° W 04:42:50 80° S 04:54:33 10° E visible
24 Jul 9.2 01:35:11 12° E 01:35:11 12° E 01:35:48 10° E visible
24 Jul 7.1 03:40:59 44° WSW 03:43:05 79° S 03:52:37 10° E visible
25 Jul 7.3 02:44:59 53° ESE 02:44:59 53° ESE 02:51:12 10° E visible
25 Jul 7.6 04:50:53 10° W 04:57:14 73° S 05:08:49 10° ESE visible
